CZ-4B R/B (29507 NORAD) Tracking and Keplerian Element Data

This shows tracking and keplerian element data for the satellite.

Feedback or suggestion? Click here.




ElementValue
Catalog29507
NameCZ-4B R/B
Epoch Orbit78331
Epoch Day56.47932976
Epoch Year2021
RAAN83.0119
Inclination97.7194
Eccentricity0.0049302
Argument of Perigee33.2371
Mean Anonmoly327.1932
Mean Motion15.00666496
Decay Rate8.87E-06
L11 29507U 06046C 21056.47932976 .00000887 00000-0 73214-4 0 9994
L22 29507 97.7194 83.0119 0049302 33.2371 327.1932 15.00666496783313

Live tracking and technical data element details for CZ-4B R/B (NORAD 29507). CZ-4B R/B can be tracked NOW for your location showing map with azimuth and elevation plus other details from your city location.

Track the satellite on the map from your city or location and see movement details for azimuth, elevation, latitude, longitude, range, height, and movement on the map or in text.







IsCatalogInMostPopularTable: catalog: 29507, numindb: 726
Update: records affected: 1



GetName: 29507 CZ-4B R/B

Hit Count: updated at: Sat, 27 Feb 2021 12:25:44 GMT